Regional Weather Roundup
Issued by NWS

Home | Current Version | Previous Version | Text Only | Print | Product List | Glossary Off
Versions: 1 2 3 4 5 6 7 8 9 10 11 12 13 14 15 16 17 18 19 20 21 22 23 24 25 26 27 28 29 30 31 32 33 34 35 36 37 38 39 40 41 42 43 44 45 46 47 48 49 50

000
ASUS43 KOAX 221510
RWRNE

WEATHER ROUNDUP FOR NEBRASKA
NATIONAL WEATHER SERVICE OMAHA NE
900 AM CST MON JAN 22 2018

NOTES: SATELLITE DATA IS BEING USED TO AUGMENT CLOUD COVER ABOVE
       12000 FEET.
       "FAIR" INDICATES FEW OR NO CLOUDS BELOW 12,000 FEET WITH NO
       SIGNIFICANT WEATHER AND/OR OBSTRUCTIONS TO VISIBILITY.


NEZ001>004-019>022-054>056-221600-
NEBRASKA PANHANDLE

CITY           SKY/WX    TMP DP  RH WIND       PRES   REMARKS
SCOTTSBLUFF    PTCLDY    16   8  71 W13       30.01S WCI   2
ALLIANCE       MOCLDY    23  16  74 NW16      29.94S WCI  10
CHADRON        PTCLDY    15   7  70 SW3       30.02R
GORDON         FAIR      19  13  77 NW6       29.95R WCI  11
KIMBALL        CLEAR     18   9  69 NW16      29.96S WCI   3
SIDNEY         PTCLDY    21  12  68 NW18      29.95S WCI   6
$$

NEZ057>060-069>072-079>082-221600-
SOUTHWEST NEBRASKA

CITY           SKY/WX    TMP DP  RH WIND       PRES   REMARKS
NORTH PLATTE     N/A    N/A N/A N/A MISG      29.84F
IMPERIAL       CLOUDY    27  21  78 NW24G35   29.88S WCI  12
LEXINGTON      CLOUDY    29  27  92 NW17      29.78R WCI  17
MCCOOK         CLOUDY    28  26  92 NW29G38   29.84R FOG     WCI  12
OGALLALA       CLOUDY    28  21  76 NW25      29.88F HAZE    WCI  13
$$

NEZ005>010-023>029-035>040-094-221600-
NORTH CENTRAL NEBRASKA

CITY           SKY/WX    TMP DP  RH WIND       PRES   REMARKS
VALENTINE      MOCLDY    25  21  85 NW20G26   29.90S WCI  11
AINSWORTH        N/A     25  24  95 N24G32    29.84F WCI  10
BROKEN BOW     CLOUDY    28  22  78 NW31G39   29.76S WCI  12
O`NEILL        CLOUDY    24  23  96 N26G32    29.78R WCI   7
ORD            FOG       27  23  85 N25G41    29.73R VSB 3/4 WCI  12
THEDFORD       CLOUDY    27  23  86 NW24G31   29.85S WCI  12
$$

NEZ041-046>049-061>064-073>077-083>087-221600-
SOUTH CENTRAL NEBRASKA

CITY           SKY/WX    TMP DP  RH WIND       PRES   REMARKS
GRAND ISLAND   FOG       27  27 100 N41G54    29.60R VSB<1/4 WCI   8
AURORA         CLOUDY    29  28  98 N37G45    29.59R WCI  12
HASTINGS       SNOW      29  27  92 N36G47    29.61R VSB 1/4 WCI  12
HEBRON         CLOUDY    33  31  92 N24G35    29.54R WCI  20
HOLDREGE       CLOUDY    29  29 100 N14G21    29.70R WCI  19
KEARNEY        SNOW      28  27  96 MISG      29.67R VSB 1/4
YORK           HVY SNOW  28  28 100 N26G36    29.53R WCI  13
$$

NEZ011>018-030>034-042>045-221600-
NORTHEAST NEBRASKA

CITY           SKY/WX    TMP DP  RH WIND       PRES   REMARKS
NORFOLK        FOG       26  25  96 N28G76    29.59R VSB 1/4 WCI  10
ALBION         HVY SNOW  27  25  93 N28G36    29.65R VSB 1/4 WCI  11
BLAIR          LGT SNOW  33  33  96 N14G20    29.43R WCI  24
COLUMBUS       HVY SNOW  29  28  96 MISG      29.55S VSB 1/4
FREMONT        SNOW      32  32 100 N13       29.49R VSB 1/4 WCI  23
TEKAMAH        FOG       33  31  92 N26       29.47S VSB 1/2 WCI  20
WAYNE          CLOUDY    28  27  96 N35G45    29.59  WCI  11
$$

NEZ050>053-065>068-078-088>093-221600-
SOUTHEAST NEBRASKA

CITY           SKY/WX    TMP DP  RH WIND       PRES   REMARKS
LINCOLN        LGT SNOW  33  31  92 N31G38    29.48R VSB 1   WCI  19
OMAHA EPPLEY   LGT SNOW  34  32  92 N14       29.43S FOG     WCI  25
BEATRICE       LGT RAIN  35  33  95 NW18      29.46S WCI  24
FALLS CITY     CLOUDY    36  35  96 NW13      29.41S FOG     WCI  27
NEBRASKA CITY  CLOUDY    34  34 100 N10       29.41S FOG     WCI  26
PLATTSMOUTH    CLOUDY    33  33 100 NW8       29.42F FOG     WCI  26
$$

NEZ044-045-051>053-067-221600-
OMAHA AREA

CITY           SKY/WX    TMP DP  RH WIND       PRES   REMARKS
OMAHA EPPLEY   LGT SNOW  34  32  92 N14       29.43S FOG     WCI  25
BLAIR          LGT SNOW  33  33  96 N14G20    29.43R WCI  24
FREMONT        SNOW      32  32 100 N13       29.49R VSB 1/4 WCI  23
MILLARD        LGT SNOW  35  33  94 N7        29.43F WCI  29
OFFUTT AFB     LGT SNOW  34  34 100 N10       29.41S FOG     WCI  26
PLATTSMOUTH    CLOUDY    33  33 100 NW8       29.42F FOG     WCI  26
WAHOO          HVY SNOW  32  32  99 MISG      29.46R VSB<1/4
$$




USA.gov is the U.S. government's official web portal to all federal, state and local government web resources and services.